Weather History for Oxford, CT

Change the Weather History Date:

Tuesday, July 16, 2013

  Actual Average Record
Temperature  
Mean Temperature 78 °F -  
Max Temperature 87 °F 76 °F 91 °F (1999)
Min Temperature 69 °F 58 °F 55 °F (2001)
Cooling Degree Days 13    
Growing Degree Days 28 (Base 50)    
Moisture  
Dew Point 66 °F    
Average Humidity 69    
Maximum Humidity 78    
Minimum Humidity 46    
Precipitation  
Precipitation 0.00 in - - ()
Sea Level Pressure  
Sea Level Pressure 30.21 in    
Wind  
Wind Speed 6 mph (North)    
Max Wind Speed 13 mph    
Max Gust Speed 20 mph    
Visibility 10 miles    
Events      
Averages and records for this station are not official NWS values.
T = Trace of Precipitation, MM = Missing Value Source: NWS Daily Summary

Daily Weather History Graph

Daily Weather History Graph

Search for Another Location

Airport:

Trip Planner

Search our weather history database for the weather conditions in past years. The results will help you decide how hot, cold, wet, or windy it might be!

Date:

Astronomy

Jul. 16, 2013 Rise Set
Actual Time 5:32 AM EDT 8:23 PM EDT
Civil Twilight 5:00 AM EDT 8:56 PM EDT
Nautical Twilight 4:18 AM EDT 9:37 PM EDT
Astronomical Twilight 3:30 AM EDT 10:25 PM EDT
Moon 2:00 PM EDT (7/16) 12:03 AM EDT (7/16)
Length of Visible Light 15h 56m
Length of Day
14h 51m
First Quarter, 56% of the Moon is Illuminated
Jul 16
First Quarter
Jul 22
Full
Jul 29
Last Quarter
Aug 6
New
Aug 14
First Quarter

Hourly Weather History & Observations

Time (EDT) Temp. Heat Index Dew Point Humidity Pressure Visibility Wind Dir Wind Speed Gust Speed Precip Events Conditions
12:15 AM 77.0 °F - 66.2 °F 69% 30.21 in 10.0 mi NNW 5.8 mph - N/A   Clear
12:35 AM 77.0 °F - 66.2 °F 69% 30.21 in 10.0 mi NNW 5.8 mph - N/A   Clear
12:55 AM 75.2 °F - 66.2 °F 73% 30.21 in 10.0 mi NNW 6.9 mph - N/A   Clear
1:15 AM 75.2 °F - 66.2 °F 73% 30.21 in 10.0 mi NNW 6.9 mph - N/A   Clear
1:35 AM 75.2 °F - 66.2 °F 73% 30.20 in 10.0 mi NNW 6.9 mph - N/A   Clear
1:55 AM 75.2 °F - 66.2 °F 73% 30.20 in 10.0 mi NNW 6.9 mph - N/A   Clear
2:15 AM 73.4 °F - 64.4 °F 73% 30.20 in 10.0 mi North 3.5 mph - N/A   Clear
2:35 AM 73.4 °F - 64.4 °F 73% 30.20 in 10.0 mi North 6.9 mph - N/A   Clear
2:55 AM 71.6 °F - 64.4 °F 78% 30.20 in 10.0 mi North 3.5 mph - N/A   Clear
3:15 AM 71.6 °F - 62.6 °F 73% 30.20 in 10.0 mi North 5.8 mph - N/A   Clear
3:35 AM 71.6 °F - 62.6 °F 73% 30.20 in 10.0 mi NNE 5.8 mph - N/A   Clear
3:55 AM 71.6 °F - 62.6 °F 73% 30.20 in 10.0 mi North 6.9 mph - N/A   Clear
4:15 AM 71.6 °F - 62.6 °F 73% 30.20 in 10.0 mi North 6.9 mph - N/A   Clear
4:35 AM 69.8 °F - 62.6 °F 78% 30.20 in 10.0 mi North 6.9 mph - N/A   Clear
4:55 AM 69.8 °F - 62.6 °F 78% 30.20 in 10.0 mi North 6.9 mph - N/A   Clear
5:15 AM 69.8 °F - 62.6 °F 78% 30.21 in 10.0 mi North 6.9 mph - N/A   Clear
5:35 AM 69.8 °F - 62.6 °F 78% 30.21 in 10.0 mi North 5.8 mph - N/A   Clear
5:45 AM 69.8 °F - 62.6 °F 78% 30.22 in 10.0 mi North 5.8 mph - N/A   Clear
6:50 AM 73.4 °F - 64.4 °F 73% 30.23 in 10.0 mi North 6.9 mph - N/A   Clear
7:45 AM 75.2 °F - 66.2 °F 73% 30.24 in 10.0 mi North 8.1 mph - N/A   Clear
8:45 AM 78.8 °F - 66.2 °F 65% 30.24 in 10.0 mi NNW 8.1 mph - N/A   Clear
9:45 AM 82.4 °F 86.3 °F 69.8 °F 66% 30.24 in 10.0 mi North 9.2 mph - N/A   Clear
10:45 AM 84.2 °F 88.4 °F 69.8 °F 62% 30.23 in 10.0 mi NNW 8.1 mph - N/A   Clear
11:45 AM 86.0 °F 90.4 °F 69.8 °F 58% 30.23 in 10.0 mi NNW 9.2 mph - N/A   Clear
12:45 PM 87.8 °F 91.4 °F 68.0 °F 52% 30.22 in 10.0 mi North 12.7 mph - N/A   Partly Cloudy
1:45 PM 87.8 °F 90.4 °F 66.2 °F 49% 30.21 in 10.0 mi North 11.5 mph 19.6 mph N/A   Scattered Clouds
2:45 PM 87.8 °F 89.4 °F 64.4 °F 46% 30.20 in 10.0 mi North 11.5 mph 17.3 mph N/A   Mostly Cloudy
5:45 PM 87.8 °F 91.4 °F 68.0 °F 52% 30.19 in 10.0 mi NNW 5.8 mph - N/A   Scattered Clouds
6:55 PM 86.0 °F 88.2 °F 66.2 °F 51% 30.19 in 10.0 mi North 5.8 mph - N/A   Clear
7:50 PM 82.4 °F 86.3 °F 69.8 °F 66% 30.20 in 10.0 mi Calm Calm - N/A   Clear
8:45 PM 78.8 °F - 68.0 °F 69% 30.21 in 10.0 mi Calm Calm - N/A   Clear
9:15 PM 77.0 °F - 66.2 °F 69% 30.21 in 10.0 mi North 5.8 mph - N/A   Clear
9:35 PM 75.2 °F - 66.2 °F 73% 30.21 in 10.0 mi North 5.8 mph - N/A   Clear
9:55 PM 77.0 °F - 66.2 °F 69% 30.22 in 10.0 mi North 3.5 mph - N/A   Clear
10:15 PM 75.2 °F - 66.2 °F 73% 30.22 in 10.0 mi North 6.9 mph - N/A   Clear
10:35 PM 75.2 °F - 66.2 °F 73% 30.22 in 10.0 mi North 6.9 mph - N/A   Clear
10:55 PM 75.2 °F - 66.2 °F 73% 30.22 in 10.0 mi North 3.5 mph - N/A   Clear
11:15 PM 75.2 °F - 66.2 °F 73% 30.22 in 10.0 mi North 4.6 mph - N/A   Clear
11:35 PM 73.4 °F - 66.2 °F 78% 30.22 in 10.0 mi North 3.5 mph - N/A   Clear
11:55 PM 73.4 °F - 64.4 °F 73% 30.22 in 10.0 mi NNE 4.6 mph - N/A   Clear